Location: Franzen
(48.6167°N, 15.3833°E)
Time: 23:16:14
(UTC+00:00)

Transit 2A - Pass Details

Date: 10 August 2021
Orbit: 594 x 964 km, 66.7° (Epoch: 26 September)

Event Time Altitude Azimuth Distance (km) Brightness Sun altitude
Rises 05:16:21 0° 266° (W) 2,918 8.4 13.6°
Reaches altitude 10° 05:19:10 10° 285° (WNW) 2,062 7.7 14.1°
Maximum altitude 05:22:27 19° 331° (NNW) 1,627 7.6 14.6°
Drops below altitude 10° 05:25:58 10° 15° (NNE) 2,215 8.8 15.2°
Sets 05:29:09 0° 34° (NNE) 3,219 9.8 15.7°
